Wind_Speed
28 22 17 16 13 12 16 12 9 12 15 10 7 7 6 5 4 5 7 4 5 5
26 24 20 20 15 11 9 11 16 14 13 19 12 10 10 8 9 8 7 5 6 7
31 28 22 18 17 19 15 15 13 20 10 14 12 12 14 12 13 11 12 8 7 9
27 25 22 22 20 19 18 18 17 20 17 15 14 15 18 15 11 15 14 10 13 12
23 22 21 23 25 21 23 20 19 16 17 17 17 17 16 14 12 13 14 12 13 12
23 22 21 18 19 24 23 23 26 24 24 24 22 21 20 19 17 17 16 15 15 12
26 26 24 21 18 19 19 16 17 20 22 23 19 17 17 20 20 20 19 15 18 17
27 25 25 22 22 21 20 20 19 18 19 20 22 22 21 19 20 21 21 20 17 17
25 27 26 24 23 24 25 23 21 21 20 21 22 23 24 22 21 21 21 22 20 18
29 27 26 28 27 27 26 20 21 23 24 24 21 20 21 22 23 23 25 24 23 22
31 29 28 29 30 31 29 28 28 26 26 26 27 26 26 26 26 28 26 24 24 24
31 29 27 26 24 23 23 24 24 24 24 21 21 20 21 22 22 24 28 29 28 27
28 25 24 21 18 16 15 14 14 14 15 18 19 19 19 20 22 23 25 28 28 25
26 23 21 20 17 16 15 15 15 13 12 13 15 17 16 14 13 15 16 17 18 22
Wind_Direction
201 213 212 207 202 183 203 236 236 230 229 239 252 245 262 262 225 276 296 310 306 290
208 219 208 214 216 209 226 229 240 233 233 239 232 236 246 254 263 254 266 259 291 292
216 219 228 227 223 227 231 230 226 235 247 227 234 236 258 266 263 256 246 264 249 262
215 219 224 221 219 214 227 225 245 243 251 259 242 245 261 261 256 255 252 271 254 266
216 216 219 221 222 217 220 229 226 236 246 258 254 248 258 257 250 255 251 255 253 266
214 217 224 222 221 226 231 232 232 239 246 253 259 261 255 256 266 264 264 269 267 273
217 219 224 230 225 225 231 241 237 243 245 249 253 257 258 259 263 269 269 275 267 267
223 223 228 232 231 233 243 246 251 249 248 252 256 257 255 254 258 266 269 267 263 261
217 222 225 228 234 242 243 242 236 246 251 256 258 263 265 265 252 256 265 270 274 271
213 217 222 225 230 234 239 239 238 245 255 260 261 258 260 257 256 261 258 264 267 270
208 212 219 223 227 233 238 244 248 251 255 261 264 264 262 260 252 253 252 257 254 259
214 215 217 221 228 235 235 239 245 250 250 253 257 262 263 262 260 254 251 252 253 256
212 212 216 217 219 231 239 237 236 245 252 257 260 263 268 269 268 267 262 258 258 257
207 207 211 216 203 211 222 240 245 248 260 260 262 267 271 269 263 270 265 256 252 249
Height
1542 1545 1549 1552 1555 1558 1561 1563 1563 1563 1565 1567 1568 1570 1571 1576 1577 1576 1576 1576 1577 1576
1538 1543 1547 1550 1553 1555 1558 1558 1560 1562 1563 1563 1566 1568 1568 1569 1571 1572 1573 1574 1575 1575
1534 1539 1542 1545 1548 1552 1554 1556 1558 1559 1560 1561 1562 1564 1565 1565 1567 1569 1570 1571 1573 1574
1530 1534 1538 1541 1544 1548 1550 1554 1555 1555 1557 1559 1560 1561 1562 1562 1564 1565 1568 1569 1570 1570
1525 1529 1533 1536 1540 1544 1546 1549 1551 1551 1554 1556 1557 1559 1560 1560 1562 1564 1565 1566 1567 1568
1519 1524 1528 1531 1535 1538 1541 1543 1546 1549 1550 1552 1554 1555 1556 1557 1558 1559 1559 1560 1561 1562
1513 1518 1523 1527 1530 1533 1536 1538 1541 1544 1546 1547 1549 1550 1551 1552 1554 1554 1555 1555 1556 1558
1508 1513 1518 1522 1526 1530 1532 1534 1536 1538 1541 1542 1543 1544 1545 1547 1549 1550 1550 1551 1552 1553
1502 1507 1512 1516 1520 1524 1526 1527 1531 1532 1535 1537 1538 1539 1540 1542 1543 1544 1545 1546 1547 1548
1495 1500 1505 1511 1515 1516 1519 1522 1526 1528 1530 1532 1532 1534 1535 1537 1538 1538 1539 1540 1542 1542
1490 1493 1497 1503 1507 1511 1513 1517 1519 1522 1523 1525 1526 1527 1528 1528 1531 1531 1533 1534 1536 1538
1485 1488 1490 1493 1499 1504 1508 1511 1514 1516 1517 1518 1519 1520 1521 1521 1523 1524 1525 1527 1530 1530
1482 1483 1486 1488 1492 1497 1501 1504 1507 1509 1511 1512 1513 1514 1515 1515 1515 1516 1517 1520 1522 1523
1483 1481 1484 1485 1487 1491 1495 1498 1500 1502 1504 1505 1507 1508 1509 1509 1509 1510 1510 1513 1515 1516